Theta_e
339 338 336 336 334 330 331 329 328 327 327 329 330 330 330 330 330 331 330 330 329 329 328 327 326 325 326 327 326 325 326 328 329 328 329 329 329 330 330 329 331 339 333
338 339 337 337 337 338 334 331 331 330 328 328 328 329 330 331 331 332 331 330 329 329 328 327 326 325 325 326 326 325 325 326 328 328 328 330 334 330 330 329 329 334 327
336 338 339 338 338 336 334 336 338 337 333 331 330 330 330 331 331 331 331 331 331 330 328 328 327 325 325 325 325 325 325 325 326 327 326 338 339 334 331 331 331 328 327
335 338 336 333 333 333 333 335 337 339 339 340 340 337 337 337 336 337 336 333 332 333 333 333 333 335 326 325 324 324 324 324 324 324 327 339 334 336 333 332 330 328 327
335 337 335 332 332 333 333 333 335 335 335 336 338 338 337 338 338 338 335 333 332 331 329 328 328 328 327 326 325 325 325 323 323 323 333 335 334 337 333 332 332 331 330
335 337 335 335 333 333 333 333 333 333 333 333 333 333 334 333 334 333 333 333 333 333 333 333 333 332 331 329 327 326 326 325 324 330 335 335 335 333 332 332 332 331 330
334 337 336 335 335 334 334 335 336 336 335 335 334 334 334 334 334 334 334 333 332 331 331 331 332 333 334 334 333 332 330 327 326 334 334 334 334 334 331 330 333 333 331
334 335 336 335 336 337 334 335 336 335 335 334 333 332 332 332 329 325 320 318 316 315 315 315 315 315 316 323 330 334 334 333 331 335 335 335 334 335 333 327 328 333 332
336 334 334 334 335 336 335 333 332 332 331 330 328 327 320 314 312 311 310 310 310 310 310 309 309 309 309 310 310 312 320 330 333 336 336 337 336 335 334 330 326 328 332
334 334 333 330 331 332 331 327 326 322 318 314 311 310 310 310 310 310 310 310 309 309 309 309 308 308 308 308 308 309 309 310 318 333 333 334 333 334 334 331 330 328 326
332 332 332 328 329 324 319 314 314 311 310 310 310 310 310 309 309 309 309 309 309 308 307 307 307 307 307 307 308 307 307 313 322 322 328 325 327 333 332 331 329 328 327
330 331 329 323 321 317 315 312 310 310 310 309 309 309 309 309 308 308 308 308 307 307 307 307 306 306 306 306 309 307 310 308 309 315 320 322 319 319 329 333 332 331 329
325 324 323 322 319 317 316 315 314 313 310 309 309 308 308 308 307 307 307 307 306 306 306 305 306 305 305 305 305 305 305 306 312 313 312 312 311 310 316 325 328 332 332
324 322 320 318 314 314 314 314 313 313 311 309 308 308 307 308 307 306 306 306 306 305 305 305 305 304 304 304 304 304 304 305 310 310 312 310 308 306 307 310 321 326 329
322 319 317 315 311 310 313 313 312 311 310 308 307 307 306 307 306 305 305 305 305 305 304 304 304 303 304 305 304 303 303 304 307 311 312 311 310 307 306 306 307 313 321
319 317 317 316 313 313 313 311 310 310 308 308 307 306 306 306 305 305 305 305 304 304 303 303 302 303 305 306 307 305 303 307 310 311 312 312 310 307 306 307 306 306 308
318 317 316 316 315 313 310 311 310 309 308 307 306 306 305 305 304 304 304 303 303 303 302 302 302 303 306 306 306 306 307 309 310 310 309 309 308 306 305 306 307 308 307
318 316 315 314 314 313 311 311 310 308 308 307 306 305 304 304 303 303 303 302 301 302 302 302 304 304 305 305 305 305 307 309 309 309 307 306 304 305 305 304 303 304 306
316 316 314 314 314 312 310 310 308 306 307 305 305 304 303 303 302 302 301 301 301 302 301 300 301 302 305 304 303 304 308 308 308 307 306 304 303 303 304 303 302 302 302
315 314 314 314 312 311 310 309 308 306 306 305 303 303 302 302 301 301 301 300 301 302 301 298 298 302 304 302 301 305 308 306 306 305 304 302 302 301 301 302 302 302 301
314 314 314 313 311 310 310 310 309 308 306 304 303 302 301 300 300 299 300 299 300 300 297 297 297 300 303 300 304 304 305 307 307 305 303 302 301 301 300 300 299 299 300
313 312 312 312 310 311 310 310 309 307 305 303 302 301 300 300 299 298 298 298 296 299 297 296 296 297 302 301 300 303 306 307 306 304 303 301 301 300 300 299 298 298 298
312 311 311 312 311 310 309 307 306 304 304 303 302 300 299 299 298 297 296 295 296 296 297 295 295 297 300 300 300 300 302 304 302 303 302 300 300 300 299 298 297 297 296
312 311 311 311 310 309 307 307 307 307 307 304 301 300 298 298 297 295 294 294 294 296 295 296 295 297 297 298 299 298 299 299 299 301 302 301 300 299 299 298 296 295 295
312 310 309 309 309 308 307 307 307 306 305 303 301 299 297 296 295 293 293 294 294 294 294 293 295 296 296 296 296 296 297 299 297 298 300 299 300 299 298 297 297 293 294
311 309 308 308 307 307 307 306 306 305 303 302 301 299 297 295 294 292 293 293 292 291 291 293 294 293 294 294 295 294 293 293 293 293 294 295 295 298 298 294 295 291 291
Wind_Speed
10 11 16 15 14 13 12 10 9 9 8 8 7 7 6 5 4 4 4 3 3 3 4 5 5 5 5 5 5 5 4 5 4 2 2 3 3 1 2 2 3 4 5
17 12 15 16 14 11 11 12 10 8 8 7 6 6 5 4 4 4 4 4 5 5 6 7 7 7 6 6 5 5 5 5 5 4 4 4 6 4 4 2 0 2 4
16 14 15 15 13 13 11 9 8 8 8 7 6 5 4 4 4 4 5 5 6 6 7 8 9 9 8 8 7 5 5 5 6 4 2 5 6 10 6 5 4 3 3
16 14 14 16 14 13 11 10 10 8 7 6 5 3 3 4 4 4 4 5 4 5 6 6 8 9 10 9 9 8 8 7 6 5 2 4 5 13 15 7 5 4 4
14 15 14 15 15 13 11 11 10 9 8 7 6 7 5 6 7 8 8 8 8 9 9 10 11 12 12 11 11 11 10 9 8 6 4 7 6 11 13 7 5 5 4
14 13 14 12 12 12 11 10 9 9 8 8 7 7 7 7 8 9 8 8 8 9 10 10 12 13 13 14 13 14 12 12 10 7 10 10 12 16 14 10 9 8 7
14 13 13 12 10 10 12 11 9 8 8 7 6 5 5 6 5 5 6 8 9 10 10 11 11 13 14 15 16 16 16 15 13 9 10 10 13 17 17 12 10 11 10
17 13 12 8 8 11 10 9 8 7 6 6 5 5 4 4 5 6 8 9 9 10 11 11 12 13 13 14 15 16 16 18 15 11 13 13 18 18 22 17 14 13 11
17 12 9 5 9 12 9 8 7 5 4 4 4 3 4 5 7 8 9 10 10 11 12 12 12 13 14 15 16 16 17 16 16 13 15 17 15 17 21 20 17 17 16
15 12 6 6 8 9 8 6 6 5 5 5 5 4 5 6 7 6 7 7 9 10 11 11 12 12 13 14 15 16 17 16 14 11 15 23 22 22 23 21 17 17 19
13 10 9 9 7 6 6 4 5 5 5 5 5 4 4 4 5 5 5 7 8 9 10 11 11 12 12 12 12 13 13 8 11 8 13 22 21 24 25 23 22 21 20
12 10 9 9 9 8 6 3 2 2 3 4 4 3 4 3 3 5 5 6 7 9 10 11 11 12 11 11 9 12 9 13 11 8 17 23 25 22 22 20 22 23 23
13 12 12 11 9 8 6 5 3 2 1 3 3 3 2 2 2 3 4 6 7 9 9 9 10 11 12 11 12 12 12 10 8 7 17 24 24 22 22 22 21 20 21
17 15 13 11 9 9 5 5 4 2 2 1 4 3 1 2 3 3 5 6 7 9 10 10 11 12 13 13 13 13 13 11 8 7 17 21 20 19 21 23 21 24 25
15 14 13 12 11 10 9 7 6 4 4 2 1 2 1 1 2 4 5 6 7 8 9 9 10 11 12 12 12 13 13 12 12 7 11 19 19 17 17 19 23 26 27
15 14 13 11 10 9 9 7 6 4 3 2 2 1 1 1 2 4 4 5 7 8 9 9 10 10 10 11 10 13 11 8 8 7 2 16 18 17 15 13 15 20 24
14 13 13 11 10 9 7 7 6 5 4 1 1 2 2 2 3 3 5 6 8 9 9 9 10 10 9 9 10 9 8 7 4 5 4 2 10 18 18 14 12 11 13
15 14 13 11 10 10 9 8 7 5 4 3 1 2 2 3 3 4 5 7 8 8 9 9 9 9 9 9 9 8 7 6 5 4 5 4 6 5 14 16 12 12 12
15 14 13 12 12 10 10 9 7 6 5 3 2 2 4 5 6 6 7 8 9 8 9 9 9 10 10 10 9 7 5 3 4 4 4 5 8 8 7 13 17 16 14
16 15 14 13 12 11 10 8 6 5 5 4 3 3 3 5 5 5 6 6 7 7 8 8 9 10 9 12 10 7 4 3 1 2 4 5 7 8 8 8 7 10 21
16 15 14 14 13 10 8 8 6 4 4 3 1 2 4 5 5 5 5 6 6 8 9 10 10 10 10 14 7 6 9 6 2 1 3 5 7 7 9 9 8 7 8
17 16 15 14 13 10 8 8 8 7 6 4 1 2 3 5 5 5 4 6 6 7 9 10 11 10 8 13 11 7 6 5 1 3 2 4 7 6 8 9 10 11 9
17 16 15 14 13 11 11 8 7 6 3 3 3 3 3 4 4 4 5 4 6 6 8 9 9 10 8 9 11 8 6 5 11 0 2 7 7 7 7 9 11 13 13
18 16 16 15 14 12 11 8 8 4 4 6 3 2 3 4 4 4 4 5 6 7 7 9 9 9 8 8 5 8 6 5 5 5 3 5 8 8 9 9 13 14 15
19 17 16 15 14 12 11 9 8 6 6 5 3 2 1 3 3 4 4 5 6 6 8 9 9 9 8 8 8 8 7 3 6 5 8 10 5 6 6 10 10 14 15
20 17 16 15 14 12 11 10 9 9 8 6 4 3 2 2 3 4 5 5 6 7 7 8 8 10 10 9 8 9 9 6 7 6 7 9 10 7 5 10 10 15 15
Wind_Direction
159 160 158 159 160 161 161 161 161 160 160 159 162 165 173 181 187 203 215 237 261 284 298 303 310 314 312 320 329 329 323 321 314 318 326 332 324 318 345 9 94 358 319
165 153 158 163 165 157 160 169 170 172 172 173 173 176 186 201 215 235 257 269 275 276 282 289 294 295 296 301 308 311 312 306 304 313 327 349 341 309 335 322 183 273 288
153 153 161 158 163 166 167 161 162 175 181 182 182 190 198 214 233 249 262 264 268 277 283 285 289 291 289 294 295 293 289 286 287 288 344 22 287 302 312 320 313 296 306
149 154 164 169 173 175 175 179 176 168 163 156 155 184 212 242 235 256 261 269 272 274 286 291 290 293 290 289 290 291 289 282 280 283 272 287 274 288 302 275 312 305 313
160 148 170 173 181 180 184 190 194 196 193 185 171 183 207 227 234 247 268 287 285 289 290 292 288 286 289 286 284 283 284 284 282 282 308 269 261 284 286 282 285 283 305
154 159 169 175 186 184 187 189 192 194 200 202 211 224 234 245 252 268 281 284 289 290 289 290 288 287 286 286 283 282 280 279 280 291 277 281 272 263 268 273 258 265 273
159 172 172 185 196 206 202 201 201 205 207 211 219 231 245 253 260 272 292 303 307 309 308 305 300 298 297 293 288 286 285 281 275 274 274 276 269 268 276 262 258 261 264
160 176 180 200 226 235 221 213 210 212 211 222 229 248 267 284 296 304 305 307 306 305 305 305 303 301 297 296 295 292 287 284 283 287 278 270 259 262 275 272 259 256 261
167 179 186 218 234 230 215 195 192 193 202 224 240 252 273 285 294 301 305 307 309 311 310 308 303 300 298 297 293 292 293 293 290 277 252 282 267 255 263 270 263 260 264
176 180 182 158 189 177 181 183 188 194 207 210 219 241 264 275 283 292 299 306 312 314 314 314 314 311 306 301 297 293 290 293 318 291 280 253 259 263 261 266 268 262 258
181 190 187 176 183 184 171 169 195 205 213 222 227 236 251 270 289 304 311 319 323 326 327 327 326 322 320 313 307 305 306 328 273 293 288 284 275 266 266 262 264 267 261
184 189 186 157 162 152 144 136 169 198 216 216 219 228 249 269 289 311 316 324 327 328 324 324 323 320 323 326 320 319 308 290 306 297 273 272 275 275 270 276 270 265 263
171 164 165 172 159 145 149 124 115 125 186 223 223 229 237 262 293 335 339 336 332 327 325 328 329 324 323 319 314 312 311 316 316 302 275 272 276 273 269 269 271 269 265
172 167 164 167 174 168 136 137 134 116 125 220 222 221 240 341 329 332 331 333 333 332 331 332 329 327 325 321 318 315 313 314 309 320 294 295 297 284 266 259 257 261 260
173 166 163 170 181 184 157 157 158 136 157 178 221 219 221 314 330 338 338 338 333 331 329 331 329 330 333 328 325 318 316 319 319 319 297 307 320 311 290 273 259 258 261
173 165 163 159 165 152 162 153 149 161 131 169 220 230 255 309 327 335 334 337 332 333 334 337 334 338 338 335 332 323 324 325 323 335 334 317 323 332 329 310 287 267 263
171 166 155 158 154 153 146 134 147 144 130 140 283 288 309 313 334 353 340 338 337 338 344 345 346 345 344 340 334 332 334 329 335 341 5 331 338 334 335 323 318 313 296
175 165 159 159 158 142 154 131 133 142 123 105 20 306 320 341 352 3 356 341 345 349 348 350 348 348 344 343 336 331 325 326 329 350 348 7 350 353 337 329 326 317 307
176 168 164 162 157 155 145 149 157 142 124 111 83 3 354 3 5 11 359 358 3 359 351 356 352 346 343 338 340 321 317 308 330 314 354 2 354 352 358 346 355 344 323
176 168 167 161 165 154 153 134 128 116 105 92 74 8 8 357 13 42 359 358 18 3 355 351 353 346 348 334 332 301 288 272 283 321 348 351 3 358 355 357 17 350 343
176 169 167 169 167 158 146 144 137 133 124 106 49 360 355 2 8 22 21 7 27 356 355 353 354 352 350 339 5 299 281 273 286 274 335 342 8 8 7 7 4 358 10
179 174 172 171 172 158 160 157 159 152 152 152 142 3 5 358 3 9 14 8 7 13 354 355 1 4 355 354 353 331 310 231 260 287 348 345 15 17 17 13 11 5 3
186 180 174 174 170 163 176 161 157 165 142 108 80 38 7 356 356 358 357 356 11 16 7 6 9 7 8 1 11 20 331 321 336 321 356 6 18 22 38 16 17 16 11
189 182 177 177 174 178 168 170 162 151 155 165 140 136 342 351 351 358 4 19 27 25 22 19 16 23 27 9 14 13 5 346 347 331 323 11 359 17 25 22 17 18 13
191 185 178 177 179 181 174 172 166 161 174 152 147 96 357 346 356 7 26 34 36 38 28 32 33 36 32 37 16 15 1 346 353 331 306 337 348 2 13 13 16 17 13
191 186 180 174 175 172 169 167 163 169 162 163 158 137 129 82 14 33 37 37 38 45 51 47 49 42 43 41 32 28 23 38 0 8 347 337 332 330 11 15 15 11 11